Погода в Красной Беларуси

Беларусь     53°25′13″N   30°09′23″E
темп.,
°C
ветер,
м/с
пор.,
м/с
влажн.,
%
обл.,
%
осадки,
мм/ч
давл.,
гПа
погр.,
м
17 сентября, пт
пт1700:00+9вюв4864100 0.0 1018274
03:00+7вюв4889100 2.8 1018294
06:00+6вюв61195100 5.9 1016305
09:00+7в51194100 12.5 1015526
12:00+7вюв71296100 8.9 1014515
15:00+7в71197100 18.8 1013441
18:00+7в61196100 1.4 1013494
21:00+7всв71396100 1.4 1013527
18 сентября, сб
сб1800:00+7в81594100 0.1 1013625
03:00+7всв81591100 0.3 1013621
06:00+7всв91693100 0.6 1012658
09:00+6всв91893100 1.0 1011700
12:00+6всв91894100 5.6 1011741
15:00+6всв101893100 11.8 1010829
18:00+6всв101895100 13.8 1008763
21:00+7всв101894100 25.5 1008805
19 сентября, вс
вс1900:00+7в91694100 1.1 1007795
03:00+8в71297100 2.1 1007615
06:00+8в51098100 0.3 1007539
09:00+8в4798100 0.5 1008482
12:00+10в5694100 0.1 1009468
15:00+9всв4695100 0.1 1009425
18:00+8св5795100 0.0 1009406
21:00+8св5996100 0.0 1009466
20 сентября, пн
пн2000:00+7св61195100 0.0 1008498
03:00+7св61095100 0.1 1008482
06:00+7св61296100 1.5 1008525
09:00+7св61195100 5.0 1009585
12:00+7св61195100 1.3 1009631
15:00+7ссв51095100 2.8 1010566
18:00+6ссв5995100 2.1 1011519
21:00+6ссв5995100 2.4 1012496
21 сентября, вт
вт2100:00+6ссв4895100 0.3 1011462
03:00+6ссв4796100 0.6 1011386
06:00+6ссв3696100 0.5 1011383
09:00+5с4596100 1.3 1011358
12:00+5ссз4595100 1.3 1012412
15:00+5ссз4494100 1.6 1012752
18:00+4сз4697100 0.6 1012655
21:00+4сз4698100 0.9 1013652